Location: Unspecified
(40.7945°N, 0.0000°E)
Time: 09:41:56
(UTC+00:00)

UWE-3 - Pass Details

Date: 20 August 2020
Orbit: 585 x 683 km, 97.6° (Epoch: 22 September)

Event Time Altitude Azimuth Distance (km) Brightness Sun altitude
Rises 04:22:17 0° 23° (NNE) 2,823 ? -10.2°
Reaches altitude 10° 04:24:38 10° 33° (NNE) 1,923 ? -9.8°
Maximum altitude 04:28:21 31° 97° (E) 1,052 ? -9.1°
Drops below altitude 10° 04:32:05 10° 160° (SSE) 1,941 ? -8.5°
Sets 04:34:28 0° 170° (S) 2,854 ? -8.1°
